Regional Weather Roundup
Issued by NWS

Home | Current Version | Previous Version | Text Only | Print | Product List | Glossary On
Versions: 1 2 3 4 5 6 7 8 9 10 11 12 13 14 15 16 17 18 19 20 21 22 23 24 25 26 27 28 29 30 31 32 33 34 35 36 37 38 39 40 41 42 43 44 45 46 47 48 49 50
000
ASUS45 KTFX 301910
RWRMT
MONTANA REGIONAL WEATHER ROUNDUP
NATIONAL WEATHER SERVICE GREAT FALLS MT
100 PM MDT SUN APR 30 2017

NOTE: "FAIR" INDICATES FEW OR NO CLOUDS BELOW 12000 FEET WITH NO
SIGNIFICANT WEATHER AND/OR OBSTRUCTIONS TO VISIBILITY.

MTZ001>007-043-302000-
WEST OF THE DIVIDE

CITY           SKY/WX    TMP DP  RH WIND       PRES   REMARKS
KALISPELL      CLOUDY    53  42  66 S18       29.92F
MISSOULA       CLOUDY    55  37  50 W18       30.01F
BUTTE          LGT RAIN  48  31  51 NW13G18   30.01F
MULLAN PASS    LGT SNOW  34  34 100 VRB5      30.00R VSB 3/4
ANACONDA         N/A     50  34  53 S17       30.00F
DEER LODGE       N/A     52  28  40 W6        30.00F
EUREKA           N/A     50  36  57 SE7       29.95F
HAMILTON         N/A     55  30  38 S10G20    30.01F
LIBBY            N/A     54  36  50 SE6       29.94F
PLAINS           N/A     52  42  68 W13       30.02S
$$

MTZ008-052>055-302000-
SOUTHWEST MONTANA

CITY           SKY/WX    TMP DP  RH WIND       PRES   REMARKS
BOZEMAN        MOSUNNY   53  34  48 VRB5      29.98F
DILLON         CLOUDY    52  29  41 SW14      30.01F
W YELLOWSTONE  CLOUDY    43  27  52 S15G23    30.08F
ENNIS          MOSUNNY   50  28  43 SE14G22   30.06F
THREE FORKS      N/A     56 -53   1 S6        29.96F
TWIN BRIDGES     N/A     53  26  35 SE14      29.99F
$$

MTZ009-010-012-014-046-048-049-054-302000-
EAST SLOPES AND CENTRAL MONTANA

CITY           SKY/WX    TMP DP  RH WIND       PRES   REMARKS
CUT BANK       PTSUNNY   52  31  44 W17G26    29.86F
GREAT FALLS    CLOUDY    55  34  45 SW23G31   29.90F
MALMSTROM AFB  MOSUNNY   55  34  45 SW26G36   29.91S
HELENA         CLOUDY    56  34  43 E10       29.94F
AUGUSTA        PTSUNNY   53  31  42 NW17G29   29.89F
BOWMANS CRNR   PTSUNNY   49  35  56 S26       29.89F
CHOTEAU          N/A     54  32  43 W16       29.91S
FAIRFIELD        N/A     54  33  43 SW10G22   29.88F
POWER            N/A     53  35  52 SW18G25   29.89S
RAYNESFORD     PTSUNNY   53  33  47 SW22G29   29.92S
ULM              N/A     55  35  46 SW26G32   29.92F
$$

MTZ011-013-016-021-045-047-050-051-302000-
NORTH CENTRAL MONTANA

CITY           SKY/WX    TMP DP  RH WIND       PRES   REMARKS
HAVRE          PTSUNNY   61  31  32 W23G32    29.82F
LEWISTOWN      CLOUDY    54  33  45 W10       29.91F
N BAR RANCH    CLOUDY    54  32  43 NW17      29.93F
CHINOOK          N/A     61  34  36 SW14G23   29.83F
DENTON           N/A     57  32  38 W22G38    29.86F
FORT BENTON      N/A    N/A N/A N/A MISG      29.89F
GEYSER         PTSUNNY   54  31  42 W20G32    29.90S
GRASS RANGE    PTSUNNY   53  34  48 W20G26    29.87F
JUDITH GAP     LGT RAIN  49  34  54 SW21G26   29.93F
STANFORD         N/A     56  33  42 W23G32    29.90S
WINIFRED       PTSUNNY   56  32  40 W9        29.88F
$$

MTZ017>020-022>027-061-062-302000-
NORTHEAST MONTANA

CITY           SKY/WX    TMP DP  RH WIND       PRES   REMARKS
GLASGOW        CLOUDY    62  33  33 W12G22    29.83F
JORDAN           N/A     63  32  31 NW17G23   29.86F
SIDNEY         SUNNY     66  23  19 S12G18    29.88F
WOLF POINT     SUNNY     67  30  25 W10G21    29.83F
MALTA          MOSUNNY   59  36  41 W13       29.84F
PLENTYWOOD       N/A     64  25  22 SW10G23   29.83F
POPLAR           N/A     64  27  24 SW14G23   29.83F
SCOBEY           N/A     64  27  25 SW21      29.82F
$$

MTZ028>42-056>058-302000-
SOUTHCENTRAL AND SOUTHEAST MONTANA

CITY           SKY/WX    TMP DP  RH WIND       PRES   REMARKS
BILLINGS       PTSUNNY   58  33  39 SW14G20   29.92F
LIVINGSTON     CLOUDY    52  35  52 W20G30    29.97F
MILES CITY     SUNNY     63  27  25 W12G24    29.89F
BIG TIMBER     SUNNY     54  34  47 W28G39    29.97F
EKALAKA          N/A     59  21  23 SE6       29.92F
LAUREL           N/A     59  32  36 S14       29.92F
ROUNDUP          N/A     58  33  38 SW13      29.82F
$$

REGIONAL REPORTS...DAKOTAS

CITY           SKY/WX    TMP DP  RH WIND       PRES   REMARKS
WILLISTON      SUNNY     66  20  17 S9G16     29.89F
MINOT          SUNNY     67  21  17 E9        29.92F
DICKINSON      SUNNY     61  16  17 SE9G20    29.92F
BEACH            N/A     61  14  16 S10       29.95F
TIOGA            N/A     63  18  17 SW14      29.91F
WATFORD CITY     N/A     64  18  16 S12G17    29.90F
BISMARCK       SUNNY     63  26  24 VRB3      29.96F
GRAND FORKS    MOSUNNY   62  27  26 E10       30.00F
FARGO          MOSUNNY   61  16  17 E15G24    29.96F
BUFFALO SD       N/A     59  19  21 VRB6      29.89F
RAPID CITY     SUNNY     57  25  29 N13       29.94F
$$

REGIONAL REPORTS...WYOMING/IDAHO/WASHINGTON

CITY           SKY/WX    TMP DP  RH WIND       PRES   REMARKS
GILLETTE       SUNNY     48  28  46 SW5       29.96F
SHERIDAN       SUNNY     55  27  34 VRB5      29.94F
BUFFALO WY     MOSUNNY   54  20  26 CALM      29.97S
CODY           MOSUNNY   55  28  35 W5        29.98F
YELLOWSTONE LA   N/A     37  26  64 VRB5      30.11F
IDAHO FALLS    CLOUDY    53  34  48 SW9       30.10S
SALMON         CLOUDY    55  34  44 NE6       30.01F
BOISE          CLOUDY    59  36  42 N8        30.14S
SPOKANE        PTSUNNY   58  31  35 SW21G29   30.00F
$$

REGIONAL REPORTS...ALBERTA

CITY           SKY/WX    TMP DP  RH WIND       PRES   REMARKS
EDMONTON       PTSUNNY   52  36  54 N5        29.77S
CALGARY        PTSUNNY   54  19  26 NW13      29.77S
LETHBRIDGE     MOSUNNY   59  27  29 W23G33    29.79F
MEDICINE HAT   PTSUNNY   63  30  29 W8G18     29.74F
CARDSTON         N/A     54  30  40 W13G18      N/A
MILK RIVER       N/A     59  30  33 W24G35      N/A
$$

REGIONAL REPORTS...SASKATCHEWAN

CITY           SKY/WX    TMP DP  RH WIND       PRES   REMARKS
SWIFT CURRENT  CLOUDY    54  34  47 SW10G29   29.79F
REGINA         PTSUNNY   61  32  33 SW10      29.82F
SASKATOON      CLOUDY    59  37  44 S14G22    29.80F
CYPRESS HILLS    N/A     50  27  40 W10G18      N/A
VAL MARIE        N/A     55  30  38 SW7         N/A
ROCKGLEN         N/A     57  30  35 SW14G21     N/A
ASSINIBOIA       N/A     54  36  50 SE8         N/A
$$



USA.gov is the U.S. government's official web portal to all federal, state and local government web resources and services.